Flag for Canada Weather past 2 weeks in Markham, Ontario, Canada

Now
7 °F

Overcast.


Feels Like: -10 °F
Forecast: 6 / 23 °F
Wind: 14 mph from North

Location: Toronto Buttonville

Current Time: Feb 1, 2015 at 10:17:44 AM

Latest Report: Feb 1, 2015 at 9:00 AM


Visibility: 15 mi

Pressure: 30.29 "Hg

Humidity: 78%

Dew point: 1 °F

Location of MarkhamLocation

Historic Weather in Markham — Graph

°F

Markham temperature yesterday

Maximum temperature yesterday: 27 °F (at 10:00 PM)
Minimum temperature yesterday: -2 °F (at 3:00 AM)
Average temperature yesterday: 14 °F

Past Weeks' High & Low Weather Summary

 TemperatureHumidityPressure
High41 °F (Jan 18, 7:00 AM)100% (Jan 18, 10:00 AM)30.41 "Hg (Jan 18, 10:00 AM)
Low-2 °F (Jan 31, 3:00 AM)26% (Jan 28, 4:00 PM)29.47 "Hg (Jan 24, 3:00 PM)
Average20 °F71%30.04 "Hg
* Reported Jan 17 10:00 AM — Feb 1 9:00 AM, Markham, Weather by CustomWeather, © 2014

Note: Actual official high and low records may vary slightly from our data, if they occured in-between our weather recording intervals... More about our weather records

Advertising

Markham weather history for previous 24 hours

 ConditionsComfort  
Time TempWeatherWind HumidityBarometerVisibility
9:00 AM
Feb 1
7 °FOvercast.14 mph78%30.29 "Hg15 mi
8:00 AM9 °FOvercast.10 mph78%30.29 "Hg15 mi
7:00 AM10 °FOvercast.12 mph79%30.28 "Hg15 mi
6:00 AM16 °FOvercast.9 mph86%30.25 "Hg12 mi
5:00 AM21 °FSnow flurries. Overcast.7 mph80%30.23 "Hg12 mi
4:00 AM23 °FSnow flurries. Overcast.10 mph80%30.20 "Hg8 mi
3:00 AM23 °FSnow flurries. Overcast.8 mph86%30.19 "Hg8 mi
2:00 AM27 °FSnow flurries. Overcast.7 mph80%30.17 "Hg8 mi
1:00 AM27 °FSnow flurries. Overcast.5 mph86%30.16 "Hg7 mi
12:00 AM27 °FSnow flurries. Overcast.7 mph86%30.16 "Hg7 mi
11:00 PM
Jan 31
27 °FSnow flurries. Overcast.9 mph80%30.16 "Hg8 mi
10:00 PM27 °FSnow flurries. Overcast.8 mph80%30.16 "Hg7 mi
9:00 PM25 °FSnow flurries. Overcast.7 mph80%30.18 "Hg8 mi
8:00 PM25 °FSnow flurries. Overcast.8 mph80%30.19 "Hg10 mi
7:00 PM25 °FSnow flurries. Overcast.6 mph80%30.19 "Hg10 mi
6:00 PM23 °FSnow flurries. Overcast.7 mph80%30.20 "Hg10 mi
5:49 PMN/ASnow flurries.6 mphN/AN/A12 mi
5:00 PM23 °FOvercast.3 mph74%30.20 "Hg12 mi
4:00 PM23 °FOvercast.5 mph68%30.20 "Hg12 mi
3:00 PM21 °FPartly sunny.6 mph68%30.22 "Hg12 mi
2:00 PM19 °FLight snow. Broken clouds.2 mph73%30.24 "Hg10 mi
1:00 PM19 °FLight snow. Partly sunny.7 mph73%30.26 "Hg12 mi
12:00 PM19 °FPartly sunny.5 mph63%30.29 "Hg15 mi
11:00 AM16 °FPartly sunny.3 mph62%30.32 "Hg15 mi
10:45 AMN/APartly sunny.No windN/AN/A15 mi
10:00 AM12 °FLight snow. Partly sunny.3 mph67%30.33 "Hg15 mi
Weather by CustomWeather, © 2014

See weather overviewHow to use our weather pages